Time,TemperatureF,DewpointF,PressureIn,WindDirection,WindDirectionDegrees,WindSpeedMPH,WindSpeedGustMPH,Humidity,HourlyPrecipIn,Conditions,Clouds,dailyrainin,SoftwareType,DateUTC
2013-02-15 00:12:00,41.0,39.0,25.44,ENE,58,0.0,-999.0,91,-99.99,,,0.00,weatherlink.com 1.10,2013-02-15 06:12:00,
2013-02-15 00:42:00,41.6,40.0,28.56,ENE,61,0.0,-999.0,92,-99.99,,,0.00,weatherlink.com 1.10,2013-02-15 06:42:00,
2013-02-15 00:57:00,42.5,40.0,28.56,ENE,61,0.0,-999.0,91,-99.99,,,0.00,weatherlink.com 1.10,2013-02-15 06:57:00,
2013-02-15 01:12:00,42.6,40.0,28.56,ENE,61,0.0,-999.0,91,-99.99,,,0.00,weatherlink.com 1.10,2013-02-15 07:12:00,
2013-02-15 01:27:00,42.6,40.0,28.56,ENE,61,0.0,-999.0,90,-99.99,,,0.00,weatherlink.com 1.10,2013-02-15 07:27:00,
2013-02-15 01:43:00,42.5,40.0,28.56,ENE,61,0.0,-999.0,90,-99.99,,,0.00,weatherlink.com 1.10,2013-02-15 07:43:00,
2013-02-15 01:58:00,42.3,40.0,28.56,ENE,62,0.0,-999.0,90,-99.99,,,0.00,weatherlink.com 1.10,2013-02-15 07:58:00,
2013-02-15 02:12:00,42.1,39.0,28.56,ENE,62,0.0,-999.0,90,-99.99,,,0.00,weatherlink.com 1.10,2013-02-15 08:12:00,
2013-02-15 02:27:00,42.0,39.0,28.56,ENE,62,0.0,-999.0,90,-99.99,,,0.00,weatherlink.com 1.10,2013-02-15 08:27:00,
2013-02-15 02:42:00,41.8,39.0,28.56,ENE,62,0.0,-999.0,90,-99.99,,,0.00,weatherlink.com 1.10,2013-02-15 08:42:00,
2013-02-15 02:57:00,41.6,39.0,28.56,ENE,62,0.0,-999.0,90,-99.99,,,0.00,weatherlink.com 1.10,2013-02-15 08:57:00,
2013-02-15 03:12:00,41.3,39.0,28.56,ENE,62,0.0,-999.0,91,-99.99,,,0.00,weatherlink.com 1.10,2013-02-15 09:12:00,
2013-02-15 03:27:00,41.3,39.0,28.56,ENE,62,0.0,-999.0,91,-99.99,,,0.00,weatherlink.com 1.10,2013-02-15 09:27:00,
2013-02-15 03:42:00,40.9,39.0,28.56,ENE,62,0.0,-999.0,91,-99.99,,,0.00,weatherlink.com 1.10,2013-02-15 09:42:00,
2013-02-15 03:57:00,40.6,38.0,28.56,ENE,62,0.0,-999.0,91,-99.99,,,0.00,weatherlink.com 1.10,2013-02-15 09:57:00,
2013-02-15 04:12:00,40.3,38.0,29.40,ENE,62,0.0,-999.0,91,-99.99,,,0.00,weatherlink.com 1.10,2013-02-15 10:12:00,
2013-02-15 04:27:00,40.2,38.0,29.77,ENE,62,0.0,-999.0,91,-99.99,,,0.00,weatherlink.com 1.10,2013-02-15 10:27:00,
2013-02-15 04:42:00,40.3,38.0,29.89,ENE,62,0.0,-999.0,91,-99.99,,,0.00,weatherlink.com 1.10,2013-02-15 10:42:00,
2013-02-15 04:57:00,40.3,38.0,29.49,ENE,62,0.0,-999.0,92,-99.99,,,0.00,weatherlink.com 1.10,2013-02-15 10:57:00,
2013-02-15 05:13:00,40.1,38.0,29.97,ENE,62,0.0,-999.0,92,-99.99,,,0.00,weatherlink.com 1.10,2013-02-15 11:13:00,
2013-02-15 05:28:00,40.1,38.0,29.97,ENE,62,0.0,-999.0,92,-99.99,,,0.00,weatherlink.com 1.10,2013-02-15 11:28:00,
2013-02-15 05:42:00,39.9,38.0,29.97,ENE,62,0.0,-999.0,92,-99.99,,,0.00,weatherlink.com 1.10,2013-02-15 11:42:00,
2013-02-15 05:57:00,39.6,38.0,29.97,ENE,62,0.0,-999.0,92,-99.99,,,0.00,weatherlink.com 1.10,2013-02-15 11:57:00,
2013-02-15 06:12:00,39.3,37.0,29.97,ENE,62,0.0,-999.0,92,-99.99,,,0.00,weatherlink.com 1.10,2013-02-15 12:12:00,
2013-02-15 06:28:00,39.3,37.0,29.97,ENE,62,0.0,-999.0,92,-99.99,,,0.00,weatherlink.com 1.10,2013-02-15 12:28:00,
2013-02-15 06:43:00,39.4,37.0,28.56,ENE,62,0.0,-999.0,92,-99.99,,,0.00,weatherlink.com 1.10,2013-02-15 12:43:00,
2013-02-15 06:59:00,39.6,38.0,28.56,ENE,62,0.0,-999.0,92,-99.99,,,0.01,weatherlink.com 1.10,2013-02-15 12:59:00,
2013-02-15 07:13:00,39.8,38.0,29.12,ENE,62,0.0,-999.0,92,-99.99,,,0.01,weatherlink.com 1.10,2013-02-15 13:13:00,
2013-02-15 07:28:00,41.1,39.0,29.12,ENE,62,0.0,-999.0,93,-99.99,,,0.01,weatherlink.com 1.10,2013-02-15 13:28:00,
2013-02-15 07:43:00,43.6,42.0,29.12,ENE,62,0.0,-999.0,93,-99.99,,,0.01,weatherlink.com 1.10,2013-02-15 13:43:00,
2013-02-15 07:58:00,46.1,44.0,28.78,ENE,62,0.0,-999.0,92,-99.99,,,0.01,weatherlink.com 1.10,2013-02-15 13:58:00,
2013-02-15 08:13:00,48.1,46.0,28.84,ENE,62,0.0,-999.0,91,-99.99,,,0.01,weatherlink.com 1.10,2013-02-15 14:13:00,
2013-02-15 08:28:00,49.5,46.0,28.84,ENE,62,0.0,-999.0,89,-99.99,,,0.01,weatherlink.com 1.10,2013-02-15 14:28:00,
2013-02-15 08:43:00,49.1,45.0,29.32,ENE,62,0.0,-999.0,87,-99.99,,,0.01,weatherlink.com 1.10,2013-02-15 14:43:00,
2013-02-15 08:58:00,49.7,46.0,29.32,ENE,62,0.0,-999.0,87,-99.99,,,0.01,weatherlink.com 1.10,2013-02-15 14:58:00,
2013-02-15 09:13:00,51.5,48.0,29.32,ENE,62,0.0,-999.0,87,-99.99,,,0.01,weatherlink.com 1.10,2013-02-15 15:13:00,
2013-02-15 09:28:00,52.3,47.0,29.32,NNW,331,7.0,-999.0,82,-99.99,,,0.01,weatherlink.com 1.10,2013-02-15 15:28:00,
2013-02-15 09:43:00,52.3,48.0,28.77,NNW,336,11.0,-999.0,84,-99.99,,,0.01,weatherlink.com 1.10,2013-02-15 15:43:00,
2013-02-15 09:58:00,52.7,48.0,29.65,NNW,332,11.0,-999.0,83,-99.99,,,0.01,weatherlink.com 1.10,2013-02-15 15:58:00,
2013-02-15 10:13:00,52.3,48.0,29.65,NW,322,9.0,-999.0,84,-99.99,,,0.01,weatherlink.com 1.10,2013-02-15 16:13:00,
2013-02-15 10:28:00,52.9,48.0,29.65,NW,315,8.0,-999.0,82,-99.99,,,0.01,weatherlink.com 1.10,2013-02-15 16:28:00,
2013-02-15 10:43:00,53.1,48.0,26.77,NW,317,10.0,-999.0,82,-99.99,,,0.01,weatherlink.com 1.10,2013-02-15 16:43:00,
2013-02-15 10:58:00,53.5,49.0,26.77,NW,315,9.0,-999.0,83,-99.99,,,0.01,weatherlink.com 1.10,2013-02-15 16:58:00,
2013-02-15 11:13:00,54.0,49.0,26.77,NW,311,5.0,-999.0,82,-99.99,,,0.01,weatherlink.com 1.10,2013-02-15 17:13:00,
2013-02-15 11:28:00,54.5,48.0,26.95,WNW,296,7.0,-999.0,80,-99.99,,,0.01,weatherlink.com 1.10,2013-02-15 17:28:00,
2013-02-15 11:43:00,54.8,49.0,26.95,West,280,4.0,-999.0,80,-99.99,,,0.01,weatherlink.com 1.10,2013-02-15 17:43:00,
2013-02-15 11:58:00,55.4,48.0,26.95,West,278,4.0,-999.0,77,-99.99,,,0.01,weatherlink.com 1.10,2013-02-15 17:58:00,
2013-02-15 12:29:00,56.0,49.0,23.30,West,277,4.0,-999.0,76,-99.99,,,0.01,weatherlink.com 1.10,2013-02-15 18:29:00,
2013-02-15 12:43:00,56.4,49.0,23.30,West,276,5.0,-999.0,75,-99.99,,,0.01,weatherlink.com 1.10,2013-02-15 18:43:00,
2013-02-15 12:58:00,56.8,49.0,23.30,West,272,5.0,-999.0,74,-99.99,,,0.01,weatherlink.com 1.10,2013-02-15 18:58:00,
2013-02-15 13:13:00,57.1,48.0,23.30,West,269,5.0,-999.0,72,-99.99,,,0.01,weatherlink.com 1.10,2013-02-15 19:13:00,
2013-02-15 13:28:00,57.5,47.0,23.30,West,271,4.0,-999.0,69,-99.99,,,0.01,weatherlink.com 1.10,2013-02-15 19:28:00,
2013-02-15 13:59:00,58.3,44.0,26.85,West,259,5.0,-999.0,59,-99.99,,,0.01,weatherlink.com 1.10,2013-02-15 19:59:00,
2013-02-15 14:14:00,58.7,46.0,26.85,WSW,246,4.0,-999.0,63,-99.99,,,0.01,weatherlink.com 1.10,2013-02-15 20:14:00,
2013-02-15 14:29:00,59.0,47.0,26.85,SW,236,4.0,-999.0,64,-99.99,,,0.01,weatherlink.com 1.10,2013-02-15 20:29:00,
2013-02-15 14:44:00,59.5,45.0,26.85,SW,236,3.0,-999.0,60,-99.99,,,0.01,weatherlink.com 1.10,2013-02-15 20:44:00,
2013-02-15 14:59:00,60.1,47.0,26.85,SW,232,3.0,-999.0,62,-99.99,,,0.01,weatherlink.com 1.10,2013-02-15 20:59:00,
2013-02-15 15:14:00,60.4,48.0,26.85,SSW,192,3.0,-999.0,63,-99.99,,,0.01,weatherlink.com 1.10,2013-02-15 21:14:00,
2013-02-15 15:29:00,61.1,47.0,26.85,SSW,192,2.0,-999.0,61,-99.99,,,0.01,weatherlink.com 1.10,2013-02-15 21:29:00,
2013-02-15 15:44:00,61.8,43.0,26.85,SSW,192,2.0,-999.0,51,-99.99,,,0.01,weatherlink.com 1.10,2013-02-15 21:44:00,
2013-02-15 15:59:00,61.8,48.0,26.85,SSW,192,0.0,-999.0,60,-99.99,,,0.01,weatherlink.com 1.10,2013-02-15 21:59:00,
2013-02-15 16:14:00,62.1,46.0,26.85,SSW,192,2.0,-999.0,56,-99.99,,,0.01,weatherlink.com 1.10,2013-02-15 22:14:00,
2013-02-15 16:29:00,61.2,48.0,26.85,SSW,192,2.0,-999.0,63,-99.99,,,0.01,weatherlink.com 1.10,2013-02-15 22:29:00,
2013-02-15 16:44:00,59.3,49.0,26.85,SSW,207,12.0,-999.0,68,-99.99,,,0.01,weatherlink.com 1.10,2013-02-15 22:44:00,
2013-02-15 16:59:00,58.8,50.0,26.85,SSW,213,12.0,-999.0,73,-99.99,,,0.01,weatherlink.com 1.10,2013-02-15 22:59:00,
2013-02-15 17:14:00,58.6,50.0,26.85,SSW,211,11.0,-999.0,74,-99.99,,,0.01,weatherlink.com 1.10,2013-02-15 23:14:00,
2013-02-15 17:29:00,58.7,50.0,26.85,SW,236,11.0,-999.0,73,-99.99,,,0.01,weatherlink.com 1.10,2013-02-15 23:29:00,
2013-02-15 17:44:00,58.2,49.0,26.85,SW,234,11.0,-999.0,72,-99.99,,,0.01,weatherlink.com 1.10,2013-02-15 23:44:00,
2013-02-15 17:59:00,57.8,48.0,26.85,SW,234,11.0,-999.0,70,-99.99,,,0.01,weatherlink.com 1.10,2013-02-15 23:59:00,
2013-02-15 18:14:00,57.5,49.0,26.85,WSW,238,7.0,-999.0,72,-99.99,,,0.01,weatherlink.com 1.10,2013-02-16 00:14:00,
2013-02-15 18:29:00,57.2,49.0,26.85,WSW,251,13.0,-999.0,73,-99.99,,,0.01,weatherlink.com 1.10,2013-02-16 00:29:00,
2013-02-15 18:44:00,57.1,50.0,26.85,WSW,250,10.0,-999.0,77,-99.99,,,0.01,weatherlink.com 1.10,2013-02-16 00:44:00,
2013-02-15 18:59:00,57.1,50.0,26.85,WSW,248,8.0,-999.0,77,-99.99,,,0.01,weatherlink.com 1.10,2013-02-16 00:59:00,
2013-02-15 19:14:00,57.2,50.0,26.85,West,259,10.0,-999.0,76,-99.99,,,0.01,weatherlink.com 1.10,2013-02-16 01:14:00,
2013-02-15 19:29:00,57.0,50.0,26.85,WSW,252,11.0,-999.0,77,-99.99,,,0.01,weatherlink.com 1.10,2013-02-16 01:29:00,
2013-02-15 19:44:00,56.9,50.0,26.85,WSW,244,7.0,-999.0,77,-99.99,,,0.01,weatherlink.com 1.10,2013-02-16 01:44:00,
2013-02-15 19:59:00,56.7,50.0,0.00,WSW,244,7.0,-999.0,77,-99.99,,,0.01,weatherlink.com 1.10,2013-02-16 01:59:00,
2013-02-15 20:14:00,56.4,49.0,0.00,WSW,247,3.0,-999.0,76,-99.99,,,0.01,weatherlink.com 1.10,2013-02-16 02:14:00,
2013-02-15 20:29:00,56.2,49.0,0.00,WSW,238,1.0,-999.0,77,-99.99,,,0.01,weatherlink.com 1.10,2013-02-16 02:29:00,
2013-02-15 20:44:00,55.9,48.0,0.00,SW,229,4.0,-999.0,76,-99.99,,,0.01,weatherlink.com 1.10,2013-02-16 02:44:00,
2013-02-15 20:59:00,56.1,49.0,0.00,SW,229,5.0,-999.0,77,-99.99,,,0.01,weatherlink.com 1.10,2013-02-16 02:59:00,
2013-02-15 21:14:00,56.2,49.0,0.00,WSW,257,5.0,-999.0,77,-99.99,,,0.01,weatherlink.com 1.10,2013-02-16 03:14:00,
2013-02-15 21:29:00,56.4,49.0,0.00,WNW,291,10.0,-999.0,77,-99.99,,,0.01,weatherlink.com 1.10,2013-02-16 03:29:00,
2013-02-15 21:44:00,55.7,49.0,0.00,West,278,10.0,-999.0,78,-99.99,,,0.01,weatherlink.com 1.10,2013-02-16 03:44:00,
2013-02-15 21:59:00,55.4,49.0,0.00,WNW,296,5.0,-999.0,80,-99.99,,,0.01,weatherlink.com 1.10,2013-02-16 03:59:00,
2013-02-15 22:14:00,55.3,50.0,0.00,NW,309,9.0,-999.0,81,-99.99,,,0.01,weatherlink.com 1.10,2013-02-16 04:14:00,
2013-02-15 22:29:00,55.4,50.0,0.00,NNW,345,5.0,-999.0,82,-99.99,,,0.01,weatherlink.com 1.10,2013-02-16 04:29:00,
2013-02-15 22:44:00,56.0,50.0,0.00,NW,323,18.0,-999.0,79,-99.99,,,0.01,weatherlink.com 1.10,2013-02-16 04:44:00,
2013-02-15 22:59:00,56.0,48.0,0.00,NNW,335,22.0,-999.0,74,-99.99,,,0.01,weatherlink.com 1.10,2013-02-16 04:59:00,
2013-02-15 23:14:00,55.1,47.0,0.00,North,355,16.0,-999.0,73,-99.99,,,0.01,weatherlink.com 1.10,2013-02-16 05:14:00,
2013-02-15 23:29:00,54.2,46.0,0.00,North,355,15.0,-999.0,75,-99.99,,,0.01,weatherlink.com 1.10,2013-02-16 05:29:00,
2013-02-15 23:44:00,53.6,46.0,0.00,North,355,12.0,-999.0,76,-99.99,,,0.01,weatherlink.com 1.10,2013-02-16 05:44:00,
2013-02-15 23:59:00,53.3,46.0,0.00,North,9,11.0,-999.0,75,-99.99,,,0.01,weatherlink.com 1.10,2013-02-16 05:59:00,